[[{"header":{"parameterUnit":"m.s-1","parameterCategory":1,"la1":30.2991,"la2":30.254,"lo1":-89.0895,"lo2":-89.0444,"dx":0.0017,"dy":0.0017,"nx":28,"ny":28,"refTime":"2023-01-27T15:00:00:Z","depth":0,"parameterNumber":2,"parameterNumberName":"U-component_of_WINDS"},"data":[0,0,0,0,0,0,0,0,0,0,0,0,0,0,0,0,0,0,0,0,0,0,0,0,0,0,0,0,0,0,0,0,0,0,0,0,0,0,0,0,0,0,0,0,0,0,0,0,0,0,0,0,0,0,0,0,0,0,-2.237,-2.2371,0,-2.2403,-2.2403,-2.2404,-2.2334,-2.2331,-2.2329,-2.2327,-2.2362,-2.2365,-2.2368,0,0,0,0,0,0,0,0,0,0,0,0,0,-2.225,-2.2252,-2.237,-2.2371,-2.2371,-2.2403,-2.2403,-2.2404,-2.2334,-2.2331,-2.2328,-2.2326,-2.2361,-2.2364,-2.2368,0,0,0,0,0,0,0,0,0,0,0,0,0,-2.2294,-2.2253,-2.237,-2.234,-2.2338,-2.2403,-2.2403,-2.2404,-2.2335,-2.2331,-2.2328,-2.2325,-2.236,-2.2364,-2.2369,-2.2465,0,0,-2.2383,-2.2385,0,0,0,0,0,0,0,0,-2.2292,-2.2299,-2.2344,-2.2342,-2.234,-2.2361,-2.2373,-2.2424,-2.2335,-2.2336,-2.2327,-2.2323,-2.2364,-2.2368,-2.2382,-2.2466,-2.2468,-2.2383,-2.2386,-2.2388,-2.2389,0,0,0,0,0,0,0,-2.2289,-2.2297,-2.2383,-2.2345,-2.2342,-2.2326,-2.2328,-2.2383,-2.2369,-2.2336,-2.2331,-2.2335,-2.2362,-2.2378,-2.2382,-2.2468,-2.2383,-2.2387,-2.239,-2.2391,-2.2634,-2.2638,0,0,0,0,0,0,-2.2289,-2.2295,-2.2382,-2.2384,-2.2307,-2.2331,-2.2333,-2.2357,-2.2368,-2.2366,-2.2338,-2.2332,-2.2372,-2.2377,-2.2383,-2.2497,-2.2388,-2.2392,-2.2395,-2.2631,-2.2635,-2.2639,0,0,0,0,0,0,-2.2287,-2.2298,-2.2381,-2.2338,-2.2347,-2.2336,-2.2364,-2.236,-2.2375,-2.237,-2.2367,-2.2356,-2.2369,-2.2377,-2.2445,-2.2497,-2.2394,-2.2398,-2.2626,-2.2632,-2.2637,-2.2724,0,0,0,0,0,0,-2.2284,-2.2297,-2.2333,-2.2339,-2.235,-2.2442,-2.2367,-2.2363,-2.2383,-2.2375,-2.2386,-2.2385,-2.2367,-2.2439,-2.245,-2.2501,-2.2402,-2.2621,-2.2629,-2.2635,-2.2717,-2.2732,-2.2745,0,0,0,0,0,-2.228,-2.2357,-2.2335,-2.2346,-2.2395,-2.2445,-2.2451,-2.2429,-2.2387,-2.2424,-2.2421,-2.2384,-2.249,-2.2446,-2.2458,-2.2512,-2.2618,-2.2627,-2.2635,-2.271,-2.2729,-2.2745,0,0,0,0,0,0,-2.2357,-2.2357,-2.2333,-2.2414,-2.243,-2.2433,-2.2478,-2.2449,-2.2477,-2.2469,-2.244,-2.2444,-2.2518,-2.2522,-2.2473,-2.2606,-2.2547,-2.2558,-2.26,-2.2618,-2.2632,-2.263,-2.2405,0,0,0,0,0,-2.2384,-2.2424,-2.2422,-2.2494,-2.2503,-2.2489,-2.251,-2.2492,-2.2507,-2.2514,-2.2515,-2.2532,-2.2569,-2.2594,-2.2627,-2.2717,-2.2719,-2.276,-2.2775,-2.2786,-2.2796,-2.2844,-2.2863,-2.2667,-2.2666,-2.2666,0,0,-2.2439,-2.2444,-2.2471,-2.2509,-2.2519,-2.2562,-2.2495,-2.2543,-2.2575,-2.2521,-2.2585,-2.2588,-2.2605,-2.2684,-2.2719,-2.269,-2.2851,-2.2797,-2.2806,-2.281,-2.2855,-2.2873,-2.289,-2.2672,-2.2671,-2.267,0,0,-2.2561,-2.2569,-2.2629,-2.2641,-2.2657,-2.2648,-2.2662,-2.267,-2.2669,-2.2733,-2.2694,-2.2732,-2.2796,-2.2809,-2.2825,-2.2954,-2.2922,-2.2966,-2.304,-2.3087,-2.3103,-2.3116,-2.3163,-2.3179,-2.2975,-2.2976,-2.2976,0,-2.2628,-2.269,-2.2665,-2.2716,-2.2734,-2.2687,-2.2749,-2.2761,-2.2788,-2.2802,-2.2768,-2.2848,-2.2856,-2.2938,-2.297,-2.2984,-2.3,-2.2964,-2.3103,-2.3116,-2.3128,-2.3172,-2.3189,-2.2981,-2.298,-2.298,-2.2979,0,-2.2771,-2.2815,-2.2863,-2.2889,-2.2913,-2.2969,-2.2953,-2.298,-2.296,-2.2955,-2.3021,-2.303,-2.3064,-2.3082,-2.3063,-2.3163,-2.3144,-2.3107,-2.3047,-2.3153,-2.3193,-2.321,-2.2988,-2.2986,-2.2985,-2.2984,0,0,-2.2942,-2.2954,-2.2972,-2.2984,-2.2998,-2.3032,-2.3087,-2.312,-2.3144,-2.3165,-2.321,-2.3266,-2.3232,-2.325,-2.3232,-2.3274,-2.3376,-2.3232,-2.3232,-2.3258,-2.3486,-2.3513,-2.3533,-2.3355,-2.3358,-2.336,-2.3484,0,-2.3063,-2.3156,-2.3135,-2.3227,-2.3268,-2.3224,-2.3272,-2.3287,-2.3284,-2.3318,-2.3315,-2.3355,-2.3307,-2.3318,-2.3357,-2.3355,-2.3421,-2.3346,-2.3397,-2.3399,-2.3394,-2.3554,-2.3583,-2.3699,-2.35,-2.3503,-2.3505,0,-2.3216,-2.3242,-2.3338,-2.3347,-2.3363,-2.3406,-2.3435,-2.3469,-2.3485,-2.348,-2.35,-2.3475,-2.353,-2.347,-2.3545,-2.3495,-2.3515,-2.3517,-2.3521,-2.3525,-2.3458,-2.3562,-2.3736,-2.3754,-2.3529,-2.3527,-2.3526,0,-2.3331,-2.339,-2.3455,-2.3467,-2.3478,-2.351,-2.3516,-2.3529,-2.355,-2.3577,-2.359,-2.3623,-2.3641,-2.3667,-2.3651,-2.3609,-2.373,-2.3669,-2.3727,-2.3728,-2.3754,-2.3753,-2.3934,-2.3768,-2.3768,-2.3767,-2.3767,0,-2.3468,-2.3529,-2.3507,-2.3547,-2.3614,-2.359,-2.3657,-2.3658,-2.367,-2.371,-2.3675,-2.3714,-2.3691,-2.3728,-2.3716,-2.3781,-2.3789,-2.3787,-2.3783,-2.379,-2.379,-2.3802,-2.3793,-2.3772,-2.3771,-2.377,-2.3769,0,-2.3608,-2.3596,-2.3664,-2.3669,-2.3672,-2.3721,-2.3726,-2.3764,-2.3758,-2.381,-2.382,-2.3812,-2.3854,-2.3841,-2.3886,-2.3878,-2.396,-2.3946,-2.3955,-2.3951,-2.401,-2.4005,-2.4205,-2.4231,-2.4049,-2.405,-2.4052,0,-2.3696,-2.3741,-2.3752,-2.3776,-2.3785,-2.3824,-2.3846,-2.3825,-2.3849,-2.3871,-2.3907,-2.3945,-2.3975,-2.4044,-2.4043,-2.4077,-2.4064,-2.4131,-2.4068,-2.4074,-2.4064,-2.4062,-2.4066,-2.4144,-2.4146,-2.4148,-2.4149,0,-2.3853,-2.3845,-2.3878,-2.3909,-2.3936,-2.396,-2.398,-2.4002,-2.3982,-2.4012,-2.4054,-2.4077,-2.4123,-2.4162,-2.4194,-2.4201,-2.4173,-2.4169,-2.4184,-2.4192,-2.4195,-2.4194,-2.3988,-2.4164,-2.4163,-2.4162,-2.4161,-2.416,-2.397,-2.4008,-2.4022,-2.4059,-2.4073,-2.4093,-2.4128,-2.4127,-2.4162,-2.4197,-2.4183,-2.4232,-2.4248,-2.4287,-2.4299,-2.4337,-2.4311,-2.4333,-2.4339,-2.4345,-2.4352,-2.4189,-2.4343,-2.4342,-2.4342,-2.4341,-2.4341,0,-2.4125,-2.4132,-2.4167,-2.4197,-2.4227,-2.4197,-2.4218,-2.4245,-2.4288,-2.4305,-2.4335,-2.4384,-2.4422,-2.4424,-2.4459,-2.449,-2.4478,-2.45,-2.4497,-2.45,-2.4373,-2.4356,-2.4509,-2.4509,-2.4509,-2.4509,-2.4509,-2.4509,-2.421,-2.4273,-2.4267,-2.4337,-2.4344,-2.439,-2.4405,-2.4424,-2.4437,-2.4493,-2.4525,-2.4525,-2.4536,-2.4573,-2.4607,-2.4606,-2.4621,-2.4648,-2.4643,-2.4525,-2.4508,-2.4492,-2.4476,-2.4652,-2.4652,-2.4766,-2.4767,-2.4768]},{"header":{"parameterUnit":"m.s-1","parameterCategory":1,"la1":30.2991,"la2":30.254,"lo1":-89.0895,"lo2":-89.0444,"dx":0.0017,"dy":0.0017,"nx":28,"ny":28,"refTime":"2023-01-27T15:00:00:Z","depth":0,"parameterNumber":3,"parameterNumberName":"V-component_of_WINDS"},"data":[0,0,0,0,0,0,0,0,0,0,0,0,0,0,0,0,0,0,0,0,0,0,0,0,0,0,0,0,0,0,0,0,0,0,0,0,0,0,0,0,0,0,0,0,0,0,0,0,0,0,0,0,0,0,0,0,0,0,2.1982,2.1982,0,2.1999,2.2,2.2,2.1998,2.1998,2.1998,2.1997,2.2013,2.2014,2.2015,0,0,0,0,0,0,0,0,0,0,0,0,0,2.1945,2.1945,2.1982,2.1982,2.1982,2.1999,2.2,2.2,2.1998,2.1998,2.1998,2.1997,2.2013,2.2014,2.2015,0,0,0,0,0,0,0,0,0,0,0,0,0,2.1961,2.1945,2.1982,2.1984,2.1984,2.1999,2.2,2.2,2.1998,2.1998,2.1997,2.1997,2.2013,2.2014,2.2015,2.2029,0,0,2.2018,2.2019,0,0,0,0,0,0,0,0,2.196,2.1963,2.1983,2.1983,2.1984,2.1996,2.1992,2.201,2.1998,2.1993,2.1997,2.1997,2.2008,2.2009,2.2013,2.203,2.2031,2.2018,2.2019,2.2019,2.202,0,0,0,0,0,0,0,2.1959,2.1962,2.1989,2.1983,2.1984,2.1983,2.1985,2.1996,2.2002,2.1993,2.1993,2.1995,2.2008,2.2012,2.2014,2.2031,2.2018,2.2019,2.202,2.202,2.2059,2.206,0,0,0,0,0,0,2.1958,2.1961,2.1988,2.1989,2.1971,2.1984,2.1986,2.1993,2.2002,2.2003,2.1996,2.1995,2.2011,2.2013,2.2014,2.2031,2.2019,2.202,2.2021,2.2059,2.206,2.206,0,0,0,0,0,0,2.1957,2.196,2.1987,2.1975,2.1978,2.1985,2.1992,2.1993,2.1998,2.2004,2.2005,2.1999,2.2011,2.2013,2.2026,2.2032,2.2021,2.2022,2.2059,2.2059,2.206,2.2065,0,0,0,0,0,0,2.1956,2.196,2.1966,2.1975,2.1979,2.1999,2.1993,2.1994,2.2,2.1999,2.2008,2.2009,2.2011,2.2024,2.2027,2.2033,2.2022,2.2058,2.2059,2.206,2.2065,2.2066,2.2067,0,0,0,0,0,2.1955,2.1967,2.1966,2.197,2.1987,2.1999,2.2002,2.2004,2.2,2.2006,2.201,2.2008,2.2031,2.2025,2.2028,2.2035,2.2058,2.2059,2.206,2.2064,2.2066,2.2067,0,0,0,0,0,0,2.1957,2.1968,2.1968,2.1983,2.1991,2.1999,2.2006,2.2006,2.2014,2.2013,2.2016,2.2017,2.203,2.2034,2.2028,2.2049,2.2044,2.2045,2.2046,2.2048,2.2049,2.2048,2.2023,0,0,0,0,0,2.196,2.197,2.1978,2.1991,2.1995,2.2,2.2006,2.2007,2.2014,2.2017,2.2022,2.2029,2.2037,2.2043,2.2051,2.2065,2.2067,2.2071,2.2073,2.2074,2.2075,2.2082,2.2084,2.2063,2.2063,2.2063,0,0,2.1965,2.1972,2.1978,2.1992,2.1998,2.2007,2.2003,2.2013,2.202,2.2019,2.2031,2.2035,2.2042,2.2056,2.2062,2.2059,2.2081,2.2075,2.2076,2.2077,2.2083,2.2085,2.2087,2.2064,2.2064,2.2064,0,0,2.1979,2.1986,2.1997,2.2003,2.2012,2.2015,2.2018,2.2027,2.2029,2.2042,2.2041,2.2049,2.2064,2.2069,2.2073,2.2089,2.2088,2.2092,2.2099,2.2106,2.2107,2.2109,2.2114,2.2115,2.2093,2.2093,2.2093,0,2.1984,2.1999,2.2002,2.2013,2.2019,2.2019,2.2029,2.2035,2.2046,2.2049,2.2047,2.2065,2.207,2.2084,2.2088,2.2092,2.2095,2.2091,2.2107,2.2108,2.211,2.2114,2.2116,2.2093,2.2093,2.2093,2.2093,0,2.2004,2.2015,2.2022,2.2033,2.204,2.2051,2.2055,2.2061,2.2062,2.2065,2.2078,2.2084,2.2093,2.2097,2.2097,2.2111,2.2109,2.2107,2.2101,2.2112,2.2116,2.2118,2.2094,2.2094,2.2094,2.2094,0,0,2.202,2.2033,2.2036,2.2041,2.2051,2.2058,2.2068,2.2078,2.2083,2.2091,2.2099,2.2111,2.2109,2.2114,2.2115,2.2122,2.2133,2.2118,2.2119,2.212,2.2147,2.2148,2.215,2.2132,2.2133,2.2133,2.2146,0,2.2035,2.2053,2.2057,2.2073,2.2082,2.2082,2.2091,2.2097,2.2101,2.2108,2.2112,2.212,2.2117,2.212,2.2127,2.213,2.2138,2.2129,2.2139,2.2139,2.2136,2.2153,2.2154,2.2167,2.2148,2.2148,2.2149,0,2.2054,2.2063,2.208,2.2088,2.2092,2.21,2.2108,2.2116,2.2123,2.2125,2.2131,2.2132,2.2141,2.2136,2.2149,2.2143,2.2147,2.2149,2.215,2.215,2.2144,2.2153,2.2171,2.2172,2.2151,2.2151,2.2151,0,2.2063,2.2079,2.2091,2.2095,2.2105,2.2111,2.2115,2.2122,2.2127,2.2135,2.2138,2.2147,2.2151,2.2157,2.216,2.2156,2.2172,2.2167,2.2173,2.2173,2.2176,2.2176,2.2194,2.218,2.218,2.218,2.218,0,2.2078,2.2089,2.2095,2.2102,2.2114,2.2117,2.2128,2.2132,2.2138,2.2146,2.2146,2.2153,2.2156,2.2164,2.2166,2.2176,2.2178,2.2179,2.2179,2.2179,2.2178,2.2181,2.218,2.2181,2.2181,2.2181,2.218,0,2.209,2.2095,2.2108,2.2117,2.2119,2.2127,2.2134,2.2141,2.2144,2.2154,2.2156,2.2161,2.217,2.2173,2.2184,2.2185,2.2196,2.2196,2.2194,2.2194,2.22,2.2199,2.222,2.2222,2.2207,2.2207,2.2207,0,2.2099,2.2107,2.2117,2.2122,2.2127,2.2136,2.2141,2.2145,2.215,2.2159,2.2165,2.2173,2.218,2.2194,2.2198,2.2206,2.2206,2.2212,2.2207,2.2206,2.2205,2.2204,2.2204,2.2213,2.2213,2.2213,2.2214,0,2.2115,2.2117,2.2125,2.2135,2.2141,2.2149,2.2155,2.216,2.2164,2.217,2.2179,2.2185,2.2195,2.2204,2.2212,2.2215,2.2215,2.2215,2.2217,2.2216,2.2214,2.2215,2.2196,2.2215,2.2215,2.2214,2.2214,2.2214,2.2125,2.2132,2.214,2.2149,2.2155,2.2161,2.2168,2.2172,2.218,2.2189,2.2191,2.22,2.2207,2.2217,2.2221,2.2228,2.2227,2.2229,2.223,2.223,2.223,2.2214,2.223,2.223,2.223,2.223,2.223,0,2.214,2.2145,2.2154,2.2164,2.2171,2.217,2.2178,2.2184,2.2192,2.2198,2.2206,2.2215,2.2224,2.2228,2.2236,2.2241,2.2241,2.2243,2.2242,2.2243,2.2232,2.2229,2.2243,2.2243,2.2243,2.2243,2.2243,2.2243,2.2149,2.216,2.2163,2.2177,2.2182,2.2192,2.2196,2.2201,2.2206,2.2218,2.2225,2.2228,2.2234,2.2242,2.2249,2.225,2.2253,2.2255,2.2255,2.2245,2.2244,2.2242,2.224,2.2255,2.2255,2.2266,2.2266,2.2266]}]]